Location: Dresden
(51.0500°N, 13.7500°E)
Time: 22:38:54
(UTC+00:00)

ISS - Pass Details

Date: 24 March 2019
Orbit: 408 x 410 km, 51.6° (Epoch: 24 April)

Event Time Altitude Azimuth Distance (km) Brightness Sun altitude
Rises 18:27:25 0° 226° (SW) 2,328 0.5 -10.6°
Reaches altitude 10° 18:29:36 10° 216° (SW) 1,470 -0.7 -10.9°
Maximum altitude 18:32:36 33° 151° (SSE) 706 -3.0 -11.4°
Enters shadow 18:34:21 20° 98° (E) 1,030 -2.4 -11.7°
